Inquirer Daily News

Weather

Get conditions and forecasts for any City, State, ZIP code or Country:  
Trenton, NJ
on Monday, December 10, 2012

Monday
Previous Day Next Day
Daily Summary
 ActualAverageRecord
Temperature
Mean Temperature °F 37°F  
Max Temperature 59°F 45°F 72°F (1966)
Min Temperature 45°F 29°F 4°F (1876)
Degree Days
Heating Degree Days 13 28  
Month to date heating degree days 195 264  
Since 1 July heating degree days 1202 1240  
Cooling Degree Days 0 0  
Month to date cooling degree days 0 0  
Year to date cooling degree days 1234 965  
Growing Degree Days2 (Base °F )  
Moisture
Dew Point 53°F   
Average Humidity 94    
Maximum Humidity 100    
Minimum Humidity 87    
Precipitation
Precipitation 0.03 in 0.13 in 1.52 in (1969)
Month to date precipitation 0.78 1.36  
Year to date precipitation 34.01 44.10  
Wind
Wind Speed 3 mph   
Max Wind Speed 14 mph   
Max Gust Speed 18 mph   
Visibility 2 miles   
Events Fog   

Key: T is trace of precipitation, MM is missing value
Source: NWS Daily Summary
Time(EST)TemperatureDew PointHumidity Pressure Visibility Wind DirectionWind SpeedGust SpeedPrecipitationEvents Conditions
12:53 AM 46.0°F 44.1°F 93% 29.95 in 7.0 miles East 5.8 mph - 0.00 in   Overcast
1:42 AM 44.6°F 44.6°F 100% 29.94 in 2.5 miles East 4.6 mph - N/A   Overcast
1:53 AM 45.0°F 45.0°F 100% 29.91 in 1.8 miles East 5.8 mph - N/A   Overcast
2:18 AM 44.6°F 44.6°F 100% 29.92 in 0.8 miles East 4.6 mph - N/A   Mist
2:53 AM 46.0°F 44.1°F 93% 29.90 in 0.5 miles ENE 3.5 mph - 0.00 in Fog Fog
3:53 AM 45.0°F 45.0°F 100% 29.87 in 0.5 miles Calm Calm - 0.01 in Fog Fog
4:53 AM 46.0°F 45.0°F 96% 29.83 in 0.5 miles Calm Calm - N/A Fog Fog
5:53 AM 46.0°F 45.0°F 96% 29.82 in 0.2 miles Calm Calm - N/A Fog Fog
6:53 AM 48.0°F 46.9°F 96% 29.79 in 0.2 miles South 5.8 mph - N/A Fog Fog
8:53 AM 50.0°F 50.0°F 100% 29.77 in 0.2 miles Calm Calm - 0.01 in Fog Fog
9:53 AM 52.0°F 51.1°F 97% 29.76 in 0.2 miles Calm Calm - N/A Fog Fog
10:53 AM 55.9°F 55.0°F 97% 29.72 in 0.2 miles WSW 5.8 mph - N/A Fog Fog
11:53 AM 57.0°F 55.9°F 96% 29.68 in 0.5 miles West 4.6 mph - N/A Fog Fog
12:26 PM 57.2°F 57.2°F 100% 29.68 in 1.0 miles WSW 9.2 mph - 0.01 in   Overcast
12:53 PM 59.0°F 57.9°F 96% 29.64 in 1.5 miles WSW 10.4 mph - 0.01 in   Overcast
1:53 PM 59.0°F 57.9°F 96% 29.62 in 1.0 miles West 6.9 mph - N/A   Overcast
2:53 PM 59.0°F 57.9°F 96% 29.60 in 2.5 miles WSW 4.6 mph - 0.00 in   Overcast
3:26 PM 59.0°F 57.2°F 94% 29.60 in 3.0 miles WSW 4.6 mph - N/A   Overcast
3:53 PM 59.0°F 57.0°F 93% 29.57 in 4.0 miles WSW 4.6 mph - N/A   Mostly Cloudy
4:00 PM 59.0°F 57.2°F 94% 29.59 in 4.0 miles West 3.5 mph - N/A   Mostly Cloudy
4:50 PM 59.0°F 57.2°F 94% 29.58 in 5.0 miles West 3.5 mph - N/A   Overcast
4:53 PM 59.0°F 57.0°F 93% 29.57 in 5.0 miles Calm Calm - N/A   Overcast
5:39 PM 59.0°F 57.2°F 94% 29.57 in 6.0 miles Calm Calm - N/A   Overcast
5:53 PM 59.0°F 55.9°F 90% 29.56 in 6.0 miles Calm Calm - N/A   Overcast
6:53 PM 57.9°F 55.9°F 93% 29.55 in 5.0 miles Calm Calm - N/A   Overcast
7:53 PM 57.0°F 55.9°F 96% 29.56 in 4.0 miles Calm Calm - N/A   Overcast
8:23 PM 55.4°F 55.4°F 100% 29.56 in 2.5 miles Calm Calm - N/A   Overcast
8:46 PM 55.4°F 55.4°F 100% 29.57 in 1.0 miles Calm Calm - N/A   Overcast
8:53 PM 57.0°F 55.0°F 93% 29.55 in 1.5 miles Calm Calm - N/A   Overcast
9:20 PM 57.2°F 55.4°F 94% 29.57 in 2.5 miles Calm Calm - N/A   Overcast
9:24 PM 57.2°F 55.4°F 94% 29.57 in 3.0 miles Calm Calm - N/A   Overcast
9:53 PM 55.9°F 55.0°F 97% 29.55 in 2.5 miles Calm Calm - N/A   Overcast
10:10 PM 55.4°F 55.4°F 100% 29.57 in 4.0 miles Calm Calm - N/A   Overcast
10:53 PM 55.9°F 55.0°F 97% 29.55 in 4.0 miles Calm Calm - N/A   Overcast
11:10 PM 55.4°F 53.6°F 94% 29.57 in 2.5 miles South 3.5 mph - N/A   Mostly Cloudy
11:36 PM 55.4°F 55.4°F 100% 29.57 in 3.0 miles Calm Calm - N/A   Clear
11:53 PM 57.0°F 55.0°F 93% 29.56 in 3.0 miles WSW 5.8 mph - N/A   Clear
Astronomy
Sunrise:07:11 AM (EST) Moon Rise:03:51 AM (EST)12/10
Sunset:04:33 PM (EST) Moon Set:02:20 PM (EST)12/10
Moon Phase
Dec. 10 Dec. 13 Dec. 20 Dec. 28 Jan. 04

Copyright © 2014 The Weather Underground, Inc.